• In Hungary
  • List of Countries
  • For 7 days
  • Water Temperature
  • Satellite Maps
  • Weather Map
  • News
  • Weather Widgets
  • user-avatar
    Login

    Hourly Weather Ptakowice

    Today, 19 August, Sunday

    Time Temperature Precipitation Wind Pressure Humidity
    00:00 +22°C° 0.1 mm 1 mps 752 mmHg 74%
    01:00 +22°C° 0.1 mm 1 mps 752 mmHg 76%
    02:00 +21°C° 0 mm 1 mps 752 mmHg 77%
    03:00 +21°C° 0 mm 1 mps 752 mmHg 79%
    04:00 +21°C° 0 mm 1 mps 752 mmHg 80%
    05:00 +22°C° 0 mm 1 mps 752 mmHg 77%
    06:00 +23°C° 0 mm 1 mps 752 mmHg 73%
    07:00 +24°C° 0 mm 1 mps 752 mmHg 70%
    08:00 +25°C° 0 mm 1 mps 753 mmHg 65%
    09:00 +27°C° 0 mm 1 mps 753 mmHg 59%
    10:00 +29°C° 0 mm 1 mps 753 mmHg 54%
    11:00 +29°C° 0.1 mm 1 mps 752 mmHg 51%
    12:00 +30°C° 0.1 mm 1 mps 752 mmHg 47%
    13:00 +29°C° 0.1 mm 0 mps 752 mmHg 44%
    14:00 +29°C° 0 mm 0 mps 752 mmHg 44%
    15:00 +29°C° 0 mm 0 mps 751 mmHg 44%
    16:00 +29°C° 0 mm 0 mps 751 mmHg 43%
    17:00 +27°C° 0 mm 0 mps 751 mmHg 47%
    18:00 +28°C° 0 mm 1 mps 751 mmHg 52%
    19:00 +27°C° 0 mm 1 mps 751 mmHg 56%
    20:00 +26°C° 0 mm 1 mps 751 mmHg 58%
    21:00 +25°C° 0 mm 1 mps 751 mmHg 60%
    22:00 +24°C° 0 mm 2 mps 751 mmHg 63%
    23:00 +24°C° 0 mm 2 mps 750 mmHg 65%

    Tomorrow, 20 August, Monday

    Time Temperature Precipitation Wind Pressure Humidity
    00:00 +23°C° 0 mm 2 mps 750 mmHg 66%
    01:00 +23°C° 0 mm 2 mps 750 mmHg 68%
    02:00 +23°C° 0 mm 2 mps 750 mmHg 69%
    03:00 +21°C° 0 mm 2 mps 750 mmHg 70%
    04:00 +21°C° 0 mm 2 mps 749 mmHg 71%
    05:00 +23°C° 0.1 mm 2 mps 749 mmHg 69%
    06:00 +24°C° 0.1 mm 2 mps 749 mmHg 67%
    07:00 +25°C° 0.1 mm 2 mps 749 mmHg 65%
    08:00 +27°C° 0 mm 2 mps 749 mmHg 59%
    09:00 +28°C° 0 mm 2 mps 749 mmHg 53%
    10:00 +30°C° 0 mm 3 mps 749 mmHg 47%
    11:00 +30°C° 0 mm 3 mps 749 mmHg 46%
    12:00 +31°C° 0 mm 3 mps 748 mmHg 45%
    13:00 +31°C° 0 mm 3 mps 748 mmHg 44%
    14:00 +31°C° 0 mm 3 mps 748 mmHg 44%
    15:00 +31°C° 0 mm 3 mps 748 mmHg 44%
    16:00 +31°C° 0 mm 3 mps 748 mmHg 43%
    17:00 +29°C° 0 mm 3 mps 748 mmHg 48%
    18:00 +28°C° 0 mm 3 mps 748 mmHg 53%
    19:00 +26°C° 0 mm 3 mps 748 mmHg 58%
    20:00 +25°C° 0 mm 3 mps 749 mmHg 61%
    21:00 +24°C° 0 mm 3 mps 749 mmHg 65%
    22:00 +22°C° 0 mm 3 mps 750 mmHg 69%
    23:00 +21°C° 0 mm 3 mps 750 mmHg 72%

    Day after tomorrow, 21 August, Tuesday

    Time Temperature Precipitation Wind Pressure Humidity
    00:00 +20°C° 0 mm 3 mps 750 mmHg 76%
    01:00 +20°C° 0 mm 3 mps 750 mmHg 80%
    02:00 +19°C° 0 mm 3 mps 751 mmHg 82%
    03:00 +18°C° 0 mm 3 mps 751 mmHg 83%
    04:00 +17°C° 0 mm 2 mps 751 mmHg 85%
    05:00 +18°C° 0 mm 3 mps 752 mmHg 80%
    06:00 +18°C° 0 mm 3 mps 752 mmHg 76%
    07:00 +19°C° 0 mm 3 mps 752 mmHg 71%
    08:00 +20°C° 0 mm 3 mps 753 mmHg 65%
    09:00 +21°C° 0 mm 3 mps 753 mmHg 58%
    10:00 +22°C° 0 mm 3 mps 753 mmHg 52%
    11:00 +24°C° 0 mm 3 mps 753 mmHg 47%
    12:00 +25°C° 0 mm 3 mps 753 mmHg 43%
    13:00 +26°C° 0 mm 3 mps 753 mmHg 39%
    14:00 +26°C° 0 mm 3 mps 752 mmHg 39%
    15:00 +26°C° 0 mm 3 mps 752 mmHg 38%
    16:00 +26°C° 0 mm 3 mps 752 mmHg 37%
    17:00 +24°C° 0 mm 2 mps 752 mmHg 42%
    18:00 +23°C° 0 mm 2 mps 752 mmHg 46%
    19:00 +21°C° 0 mm 1 mps 752 mmHg 50%
    20:00 +20°C° 0 mm 1 mps 753 mmHg 52%
    21:00 +20°C° 0 mm 1 mps 753 mmHg 54%
    22:00 +19°C° 0 mm 1 mps 753 mmHg 55%
    23:00 +18°C° 0 mm 1 mps 753 mmHg 57%

    22 August, Wednesday

    Time Temperature Precipitation Wind Pressure Humidity
    00:00 +18°C° 0 mm 1 mps 753 mmHg 58%
    01:00 +16°C° 0 mm 1 mps 753 mmHg 60%
    02:00 +16°C° 0 mm 1 mps 753 mmHg 62%
    03:00 +16°C° 0 mm 1 mps 753 mmHg 63%
    04:00 +15°C° 0 mm 1 mps 753 mmHg 65%
    05:00 +18°C° 0 mm 1 mps 753 mmHg 62%
    06:00 +19°C° 0 mm 1 mps 753 mmHg 60%
    07:00 +20°C° 0 mm 1 mps 753 mmHg 58%
    08:00 +22°C° 0 mm 1 mps 753 mmHg 53%
    09:00 +24°C° 0 mm 2 mps 753 mmHg 48%
    10:00 +25°C° 0 mm 2 mps 753 mmHg 43%
    11:00 +26°C° 0 mm 2 mps 752 mmHg 40%
    12:00 +27°C° 0 mm 2 mps 752 mmHg 37%
    13:00 +28°C° 0 mm 2 mps 752 mmHg 35%
    14:00 +29°C° 0 mm 2 mps 751 mmHg 34%
    15:00 +29°C° 0 mm 2 mps 751 mmHg 34%
    16:00 +29°C° 0 mm 1 mps 751 mmHg 33%
    17:00 +27°C° 0 mm 1 mps 750 mmHg 38%
    18:00 +25°C° 0 mm 1 mps 750 mmHg 43%
    19:00 +24°C° 0 mm 1 mps 750 mmHg 48%
    20:00 +23°C° 0 mm 1 mps 750 mmHg 51%
    21:00 +22°C° 0 mm 1 mps 750 mmHg 54%
    22:00 +20°C° 0 mm 2 mps 750 mmHg 56%
    23:00 +20°C° 0 mm 2 mps 750 mmHg 60%

    23 August, Thursday

    Time Temperature Precipitation Wind Pressure Humidity
    00:00 +19°C° 0 mm 2 mps 750 mmHg 63%
    01:00 +19°C° 0 mm 2 mps 750 mmHg 66%
    02:00 +19°C° 0 mm 1 mps 750 mmHg 68%
    03:00 +19°C° 0 mm 1 mps 750 mmHg 69%
    04:00 +19°C° 0 mm 1 mps 749 mmHg 71%
    05:00 +20°C° 0 mm 1 mps 749 mmHg 68%
    06:00 +21°C° 0 mm 1 mps 749 mmHg 65%
    07:00 +22°C° 0 mm 1 mps 749 mmHg 62%
    08:00 +24°C° 0 mm 1 mps 749 mmHg 55%
    09:00 +27°C° 0 mm 1 mps 749 mmHg 49%
    10:00 +29°C° 0 mm 1 mps 749 mmHg 42%
    11:00 +30°C° 0 mm 1 mps 748 mmHg 39%
    12:00 +30°C° 0 mm 1 mps 748 mmHg 37%
    13:00 +31°C° 0 mm 1 mps 748 mmHg 34%
    14:00 +31°C° 0 mm 1 mps 747 mmHg 33%
    15:00 +31°C° 0 mm 1 mps 747 mmHg 33%
    16:00 +32°C° 0 mm 1 mps 747 mmHg 33%
    17:00 +30°C° 0 mm 1 mps 747 mmHg 37%
    18:00 +28°C° 0 mm 1 mps 746 mmHg 41%
    19:00 +26°C° 0 mm 1 mps 746 mmHg 46%
    20:00 +25°C° 0 mm 1 mps 746 mmHg 47%
    21:00 +25°C° 0 mm 1 mps 746 mmHg 49%
    22:00 +24°C° 0 mm 1 mps 746 mmHg 51%
    23:00 +24°C° 0.1 mm 1 mps 746 mmHg 54%

    24 August, Friday

    Time Temperature Precipitation Wind Pressure Humidity
    00:00 +23°C° 0.1 mm 2 mps 745 mmHg 57%
    01:00 +23°C° 0.1 mm 2 mps 745 mmHg 59%
    02:00 +23°C° 0.2 mm 2 mps 745 mmHg 62%
    03:00 +21°C° 0.2 mm 2 mps 744 mmHg 65%
    04:00 +21°C° 0.2 mm 2 mps 744 mmHg 68%
    05:00 +23°C° 0.1 mm 2 mps 744 mmHg 69%
    06:00 +22°C° 0.1 mm 3 mps 744 mmHg 69%
    07:00 +24°C° 0.1 mm 3 mps 744 mmHg 70%
    08:00 +26°C° 0 mm 3 mps 744 mmHg 64%
    09:00 +27°C° 0 mm 3 mps 744 mmHg 58%
    10:00 +29°C° 0 mm 3 mps 744 mmHg 52%
    11:00 +30°C° 0.1 mm 3 mps 743 mmHg 49%
    12:00 +31°C° 0.1 mm 3 mps 743 mmHg 45%
    13:00 +33°C° 0.1 mm 3 mps 743 mmHg 42%
    14:00 +31°C° 0 mm 3 mps 743 mmHg 45%
    15:00 +30°C° 0 mm 3 mps 742 mmHg 48%
    16:00 +29°C° 0 mm 3 mps 742 mmHg 51%
    17:00 +28°C° 0.6 mm 3 mps 742 mmHg 57%
    18:00 +26°C° 0.6 mm 3 mps 742 mmHg 62%
    19:00 +25°C° 0.6 mm 3 mps 742 mmHg 68%
    20:00 +24°C° 0.8 mm 3 mps 742 mmHg 75%
    21:00 +22°C° 0.8 mm 3 mps 743 mmHg 81%
    22:00 +20°C° 0.8 mm 2 mps 743 mmHg 88%
    23:00 +20°C° 0.1 mm 2 mps 743 mmHg 89%
    Show more